User: anonymous   Login
Location: Unspecified
(0.0000°N, 0.0000°E)
Time: 09:59:28
(UTC+00:00)
Language:

STARLINK-4474 - Orbit

View from above orbital plane
View from above orbital plane
View from above satellite
View from above satellite

Ground track
Ground track

The orbit is defined by the following mean orbital elements,

1 53547U          26145.53063507 +.00000000 +00000-0 +52822-4 0 00007
2 53547  53.2129  79.1656 0001432  85.8692 274.2464 15.08839341    01
Epoch (UTC): 25 May 2026 12:44:06
Eccentricity: 0.0001432
inclination: 53.2129°
perigee height: 539 km
apogee height: 541 km
right ascension of ascending node: 79.1656°
argument of perigee: 85.8692°
revolutions per day: 15.08839341
mean anomaly at epoch: 274.2464°

The dashed part of the orbit path shows where the satellite is in the earth's shadow,  

DLR